Probability
0 0 0 0 0 0 0 0 0 0 0 0 0 0 0 0 0 0 0 0 0 0 0 0 0 0 0 0 0 0 0 0 0 0 0 0 0 0
0 0 0 0 0 0 0 0 0 0 0 0 0 0 0 0 0 0 0 0 0 0 0 0 0 0 0 0 0 0 0 0 0 0 0 0 0 0
0 0 0 0 0 0 0 0 0 0 0 0 0 0 0 0 0 0 0 0 0 0 0 0 0 0 0 0 0 0 0 0 0 0 0 0 0 0
0 0 0 0 0 0 0 0 0 0 0 0 0 0 0 0 0 0 0 0 0 0 0 0 0 0 0 0 0 0 0 0 0 0 0 0 0 0
0 0 0 0 0 0 0 0 0 0 0 0 0 0 0 0 0 0 0 0 0 0 0 0 0 0 0 0 0 0 0 0 0 0 0 0 0 0
0 0 0 0 0 0 0 0 0 0 0 0 0 0 0 0 0 0 0 0 0 0 0 0 0 0 0 0 0 0 0 0 0 0 0 0 0 0
0 0 0 0 0 0 0 0 0 0 0 0 0 0 0 0 0 0 0 0 0 0 0 0 0 0 0 0 0 0 0 0 0 0 0 0 0 0
0 0 0 0 0 0 0 0 0 0 0 0 0 0 0 0 0 0 0 0 0 0 0 0 0 0 0 0 0 0 0 0 0 0 0 0 0 0
0 0 0 0 0 0 0 0 0 0 0 0 0 0 0 0 0 0 0 0 0 0 0 0 0 0 0 0 0 0 0 0 0 0 0 0 0 0
0 0 0 0 0 0 0 0 0 0 0 0 0 0 0 0 0 0 0 0 0 0 0 0 0 0 0 0 0 0 0 0 0 0 0 0 0 0
0 0 0 0 0 0 0 0 0 0 0 0 0 0 0 0 0 0 0 0 0 0 0 0 0 0 0 0 0 0 0 0 0 0 0 0 0 0
0 0 0 0 0 0 0 0 0 0 0 0 0 0 0 0 0 0 0 0 0 0 0 0 0 0 0 0 0 0 0 0 0 0 0 0 0 0
0 0 0 0 0 0 0 0 0 0 0 0 0 0 0 0 0 0 0 0 0 0 0 0 0 0 0 0 0 0 0 0 0 0 0 0 0 0
0 0 0 0 0 0 0 0 0 0 0 0 0 0 0 0 0 0 0 0 0 0 0 0 0 0 0 0 0 0 0 0 0 0 0 0 0 0
0 0 0 0 0 0 0 0 0 0 0 0 0 0 0 0 0 0 0 0 0 0 0 0 0 0 0 0 0 0 0 0 0 0 0 0 0 0
0 0 0 0 0 0 0 0 0 0 0 0 0 0 0 0 0 0 0 0 0 0 0 0 0 0 0 0 0 0 0 0 0 0 0 0 0 0
0 0 0 0 0 0 0 0 0 0 0 0 0 0 0 0 0 0 0 0 0 0 0 0 0 0 0 0 0 0 0 0 0 0 0 0 0 0
0 0 0 0 0 0 0 0 0 0 0 0 0 0 0 0 0 0 0 0 0 0 0 0 0 0 0 0 0 0 0 0 0 0 0 0 0 0
0 0 0 0 0 0 0 0 0 0 0 0 0 0 0 0 0 0 0 0 0 0 0 0 0 0 0 0 0 0 0 0 0 0 0 0 0 0
0 0 0 0 0 0 0 0 0 0 0 0 0 0 0 0 0 0 0 0 0 0 0 0 0 0 0 0 0 0 0 0 0 0 0 0 0 0
0 0 0 0 0 0 0 0 0 0 0 0 0 0 0 0 0 0 0 0 0 0 0 0 0 0 0 0 0 0 0 0 0 0 0 0 0 0
0 0 0 0 0 0 0 0 0 0 0 0 0 0 0 0 0 0 0 0 0 0 0 0 0 0 0 0 0 0 0 0 0 0 0 0 0 0
0 0 0 0 0 0 0 0 0 0 0 0 0 0 0 0 0 0 0 0 0 0 0 0 0 0 0 0 0 0 0 0 0 0 0 0 0 0
Wind_Speed
5 5 4 4 4 4 4 4 4 3 3 4 3 4 5 5 8 7 6 9 10 8 8 6 5 3 1 1 1 3 4 5 5 5 5 6 7 7
3 5 5 4 4 4 4 4 5 5 4 3 4 3 4 6 10 7 7 12 12 11 10 8 7 5 3 2 2 2 4 6 6 6 5 5 5 6
3 4 5 5 4 4 5 5 5 5 6 4 2 2 4 5 5 5 5 6 6 12 11 10 9 7 6 5 4 3 3 4 5 6 5 4 4 5
3 3 4 4 6 5 5 7 6 7 6 6 3 3 5 4 4 5 5 6 5 10 13 12 11 10 9 8 7 6 5 4 4 4 4 4 3 4
3 4 4 4 5 5 6 6 6 6 6 5 4 3 2 2 2 3 4 4 5 8 11 12 12 12 11 10 8 7 6 4 3 3 2 2 1 3
4 4 4 4 5 5 5 6 5 6 6 5 4 3 2 2 2 3 3 4 5 4 6 7 11 13 13 12 10 9 7 6 5 4 3 2 1 2
3 3 3 4 6 4 3 3 4 4 4 4 3 3 3 3 3 3 4 2 3 4 4 4 5 6 7 11 13 13 11 10 9 8 7 5 4 4
4 3 3 4 4 5 6 6 5 4 4 3 3 3 4 4 3 3 3 3 3 3 4 4 4 6 7 7 11 13 13 13 12 11 10 9 8 6
5 4 3 3 4 3 5 6 6 8 7 4 3 4 3 4 4 4 4 4 3 3 3 3 3 5 6 7 14 16 17 16 14 14 13 12 10 9
5 5 4 4 4 4 4 4 4 5 6 5 4 4 3 2 3 3 3 3 2 2 4 3 3 4 3 5 13 17 16 16 15 15 14 13 11 10
3 4 5 4 6 6 5 5 6 6 7 10 9 7 6 6 5 3 3 2 2 3 4 3 2 2 2 3 6 12 13 14 14 15 14 13 12 11
1 2 5 5 5 5 6 6 6 5 4 4 6 7 5 6 7 6 4 3 2 2 3 3 2 1 3 2 1 2 5 9 13 14 14 13 12 8
1 1 2 4 5 5 6 6 7 4 3 3 2 2 2 2 2 2 2 3 3 3 3 4 2 1 2 3 2 1 2 2 4 7 12 13 13 11
2 2 2 5 6 6 4 6 7 4 2 2 2 1 1 1 0 0 1 1 2 3 3 4 3 3 2 2 3 2 1 2 2 3 4 7 11 13
2 4 6 6 5 3 3 4 5 4 3 2 2 1 1 1 1 1 1 2 2 1 0 2 2 2 2 3 3 2 2 2 2 3 3 5 6 6
3 3 3 2 1 2 2 2 3 3 3 2 2 2 1 1 1 1 1 1 2 2 2 1 1 2 2 3 4 4 3 3 1 2 3 4 5 6
3 1 0 1 1 2 2 3 3 3 3 2 2 2 1 1 1 0 0 0 0 1 2 2 2 2 4 4 4 5 4 4 4 3 3 4 5 7
1 1 1 1 1 2 2 2 3 3 3 3 3 2 1 0 0 1 1 1 1 2 2 1 1 2 2 3 6 6 4 4 3 4 4 4 5 5
3 3 3 3 3 3 3 3 3 3 2 3 3 2 1 1 1 1 1 1 2 2 2 1 1 1 3 4 4 3 3 3 2 2 4 4 5 4
6 5 5 5 5 5 4 4 4 3 3 3 3 3 2 1 1 1 2 2 2 2 3 2 2 3 3 3 3 3 3 4 4 4 3 3 5 6
7 7 6 6 5 5 5 5 4 4 4 3 3 3 2 1 1 2 2 3 3 2 3 3 3 4 3 2 4 3 2 4 5 4 4 4 3 3
6 7 7 7 6 6 5 5 5 5 5 4 3 3 2 2 2 3 3 3 3 3 4 3 3 2 1 3 4 4 4 3 3 4 5 4 3 3
6 6 6 6 6 6 5 6 6 5 4 4 3 3 2 2 2 2 3 3 3 4 4 3 2 1 1 2 3 3 5 5 3 3 2 2 3 4
Wind_Direction
217 212 207 205 202 192 172 168 178 222 259 248 241 222 207 203 207 206 204 215 211 208 205 205 207 206 197 131 41 358 343 341 335 327 331 340 349 359
208 211 212 205 206 203 199 193 195 203 235 246 237 231 200 213 211 205 208 215 217 214 214 215 217 220 225 230 246 304 327 330 318 308 305 321 343 356
216 215 222 210 210 208 204 203 206 203 230 246 235 226 203 210 202 195 203 210 216 218 219 220 222 224 231 236 238 250 282 306 309 303 296 300 321 347
228 228 234 223 218 212 211 215 213 208 217 236 233 217 220 211 191 190 200 214 215 222 223 224 225 225 227 232 234 237 247 271 293 313 306 299 308 336
225 227 234 227 227 220 218 218 215 213 213 223 228 202 193 166 162 187 196 212 216 223 225 227 228 228 227 229 233 238 245 257 271 305 324 327 338 333
231 234 236 228 232 228 225 222 213 209 206 215 216 193 183 167 167 184 204 207 218 214 218 220 228 234 232 232 234 235 239 245 247 249 253 255 253 297
227 238 243 240 239 232 224 216 207 207 204 211 205 189 187 180 201 193 210 184 215 207 207 217 223 231 231 234 236 235 230 231 232 232 232 230 230 245
205 217 235 245 249 243 242 227 205 198 203 210 215 218 212 200 179 180 178 169 238 196 190 228 203 232 234 228 229 229 228 226 224 224 224 223 224 231
195 196 206 217 227 233 251 250 233 225 215 202 216 226 215 200 181 184 192 196 215 178 160 237 201 236 236 231 230 232 230 227 222 220 221 221 221 223
193 195 201 217 218 214 222 237 240 238 230 225 220 221 209 196 192 198 196 208 218 183 170 234 219 232 239 230 233 230 227 224 222 220 221 220 219 219
191 196 201 218 236 221 210 231 245 248 241 232 227 225 221 220 219 223 218 217 233 217 188 218 247 247 253 248 241 235 228 222 221 221 221 219 218 218
180 209 221 231 248 235 205 214 237 246 227 224 230 238 236 242 249 243 232 223 215 238 185 198 240 242 293 273 285 259 236 231 224 223 222 218 212 212
276 260 257 263 275 272 220 207 225 222 202 204 203 206 212 218 236 241 226 217 216 233 183 183 206 209 259 300 304 276 226 226 220 225 223 220 211 202
318 309 295 296 294 291 247 222 223 196 159 156 162 168 171 180 181 234 264 255 248 251 203 180 195 192 212 268 288 307 292 240 220 221 216 219 219 214
329 316 311 303 300 291 258 214 172 151 148 152 161 162 141 112 86 43 20 14 358 344 107 192 209 201 205 238 267 277 299 283 230 226 219 218 219 216
336 326 340 24 65 85 78 99 119 138 140 142 134 113 92 86 76 44 32 18 8 349 353 327 260 231 237 239 250 260 236 260 262 230 235 235 228 221
312 308 329 83 87 81 78 84 91 99 95 93 103 97 83 74 44 5 346 295 288 307 314 318 304 276 260 263 268 266 259 246 234 207 211 241 237 229
338 14 20 67 94 99 100 89 83 88 87 96 100 101 105 97 315 302 271 260 276 281 286 292 314 322 303 267 238 262 269 269 253 213 213 249 263 233
56 48 40 51 70 78 79 80 80 83 89 96 96 91 84 50 348 327 321 304 294 293 290 290 283 291 298 298 293 236 253 284 276 247 228 235 260 257
39 43 44 49 57 60 63 70 75 74 71 71 69 61 49 34 7 338 322 303 296 296 297 286 260 246 250 271 281 292 231 256 276 279 264 241 252 262
36 42 43 46 49 51 53 57 60 59 58 59 53 44 33 24 358 328 313 302 290 284 291 288 274 263 255 255 267 273 273 253 258 277 293 287 275 261
40 43 43 44 44 46 46 48 51 49 43 40 31 23 13 2 343 332 324 315 303 294 290 289 292 289 243 252 274 286 294 299 288 278 265 268 288 298
41 44 42 37 35 35 37 38 40 36 28 16 5 355 348 340 331 325 323 320 317 318 316 311 310 289 268 273 287 294 303 313 315 320 314 341 320 310